OENG

Details ICAO OENG (EAM)
Name NEJRAN
Region Saudi Arabia
Timezone Asia/Riyadh (UTC+3.0)
Plans Departing 3
Arriving 4
Stats Elevation 3,982 ft / 1,214 m (AMSL)
Location 17.611436° 44.419170°
Runways 1
Magnetic Variation 2.460° E
Sunrise 2018-05-21 02:29:50 UTC / 2018-05-21 05:29:50 Local
Sunset 2018-05-21 15:30:50 UTC / 2018-05-21 18:30:50 Local
Advertisement - Login to hide

Runways

ID Width Length Bearing (true) Bearing (mag) Surface Threshold Offset Overrun Length
06 147 ft / 45 m 10,026 ft / 3,056 m 59.83° 57.37° Asphalt 0 ft / 0 m 895 ft / 273 m
24 147 ft / 45 m 10,026 ft / 3,056 m 239.84° 237.38° Asphalt 0 ft / 0 m 194 ft / 59 m

Map

Weather


0- 5 10 15 20 25 30 35+ Temperature / ° C

Clouds and Precipitation
Forecast for 2018-05-20 18:00 UTC. Updated 5 hours ago

Ground ~20,000 ft ~40,000 ft Winds

METAR

OENG 202100Z 06004KT 9999 FEW030 SCT090 28/05 Q1016 NOSIG

TAF

Not found

Frequencies

Unicom 122.80 MHz CTAF
Tower 118.50 MHz TWR
Ground 121.90 MHz GND
Warning: Do not use this data for real-world aviation or navigation. No guarantee of current accuracy is given.